| time (UTC) | temp F | wind direction | speed MPH | gust MPH | rain 1hr in | rain 24hr in | rain mn in | humidity % | barometer mb |
| 20260905050841 | 66 | 38 | 0.0 | 1.0 | 0.00 | 0.28 | 0.00 | 92 | 1011.2 |
| 20260905050353 | 66 | 38 | 0.0 | 0.0 | 0.00 | 0.28 | 0.00 | 92 | 1011.3 |
| 20260905050119 | 66 | 38 | 0.0 | 0.0 | 0.00 | 0.28 | 0.00 | 92 | 1010.8 |
| 20260905050053 | 66 | 0 | 0.0 | 0.0 | 0.00 | 0.28 | 0.00 | 92 | 1011.1 |
| 20260905045839 | 66 | 38 | 0.0 | 0.0 | 0.00 | 0.32 | 0.00 | 92 | 1011.3 |
| 20260905045351 | 67 | 38 | 0.0 | 0.0 | 0.00 | 0.32 | 0.00 | 92 | 1011.4 |
| 20260905044842 | 67 | 38 | 0.0 | 0.0 | 0.00 | 0.32 | 0.00 | 92 | 1011.4 |
| 20260905044610 | 66 | 38 | 0.0 | 0.0 | 0.00 | 0.32 | 0.00 | 92 | 1010.9 |
| 20260905044552 | 66 | 0 | 0.0 | 1.0 | 0.00 | 0.32 | 0.00 | 92 | 1011.3 |
| 20260905044353 | 66 | 38 | 0.0 | 1.0 | 0.00 | 0.32 | 0.00 | 92 | 1011.4 |
| 20260905043843 | 67 | 38 | 0.0 | 1.0 | 0.00 | 0.32 | 0.00 | 92 | 1011.5 |
| 20260905043355 | 66 | 38 | 0.0 | 2.0 | 0.00 | 0.32 | 0.00 | 92 | 1011.5 |
| 20260905043120 | 66 | 38 | 0.0 | 2.0 | 0.00 | 0.32 | 0.00 | 92 | 1010.9 |
| 20260905043055 | 66 | 0 | 0.0 | 3.0 | 0.00 | 0.32 | 0.00 | 92 | 1011.3 |
| 20260905042843 | 66 | 38 | 0.0 | 3.0 | 0.00 | 0.32 | 0.00 | 92 | 1011.5 |
| 20260905042353 | 66 | 11 | 1.0 | 4.0 | 0.00 | 0.32 | 0.00 | 92 | 1011.4 |
| 20260905041845 | 66 | 15 | 2.0 | 4.0 | 0.00 | 0.32 | 0.00 | 92 | 1011.4 |
| 20260905041615 | 66 | 5 | 2.0 | 4.0 | 0.00 | 0.32 | 0.00 | 92 | 1010.9 |
| 20260905041544 | 66 | 17 | 1.0 | 4.0 | 0.00 | 0.32 | 0.00 | 92 | 1011.2 |
| 20260905041341 | 66 | 360 | 2.0 | 4.0 | 0.00 | 0.32 | 0.00 | 92 | 1011.4 |
| 20260905040848 | 66 | 323 | 3.0 | 4.0 | 0.00 | 0.32 | 0.00 | 92 | 1011.4 |
| 20260905040340 | 66 | 5 | 2.0 | 4.0 | 0.00 | 0.32 | 0.00 | 93 | 1011.4 |
| 20260905040120 | 66 | 355 | 1.0 | 3.0 | 0.00 | 0.32 | 0.00 | 93 | 1010.9 |
| 20260905040103 | 66 | 360 | 0.0 | 3.0 | 0.00 | 0.32 | 0.00 | 92 | 1011.3 |
| 20260905035846 | 66 | 17 | 1.0 | 3.0 | 0.00 | 0.32 | 0.32 | 93 | 1011.5 |
| 20260905035355 | 66 | 342 | 1.0 | 3.0 | 0.00 | 0.32 | 0.32 | 93 | 1011.6 |
| 20260905034845 | 66 | 11 | 1.0 | 3.0 | 0.00 | 0.32 | 0.32 | 93 | 1011.5 |
| 20260905034606 | 66 | 355 | 1.0 | 3.0 | 0.00 | 0.32 | 0.32 | 92 | 1010.9 |
| 20260905034555 | 66 | 355 | 0.0 | 3.0 | 0.00 | 0.32 | 0.32 | 92 | 1011.3 |
| 20260905034353 | 67 | 30 | 0.0 | 2.0 | 0.00 | 0.32 | 0.32 | 92 | 1011.6 |
| 20260905033843 | 66 | 26 | 0.0 | 2.0 | 0.00 | 0.32 | 0.32 | 92 | 1011.7 |
| 20260905033353 | 66 | 5 | 1.0 | 2.0 | 0.00 | 0.32 | 0.32 | 92 | 1011.7 |
| 20260905033111 | 66 | 0 | 0.0 | 3.0 | 0.00 | 0.32 | 0.32 | 92 | 1011.4 |
| 20260905032858 | 66 | 34 | 1.0 | 3.0 | 0.00 | 0.32 | 0.32 | 92 | 1011.6 |
| 20260905032349 | 66 | 14 | 2.0 | 3.0 | 0.00 | 0.32 | 0.32 | 92 | 1011.7 |
| 20260905031838 | 66 | 12 | 0.0 | 2.0 | 0.00 | 0.32 | 0.32 | 92 | 1011.7 |
| 20260905031613 | 66 | 0 | 0.0 | 2.0 | 0.00 | 0.32 | 0.32 | 92 | 1011.5 |
| 20260905031606 | 66 | 12 | 0.0 | 2.0 | 0.00 | 0.32 | 0.32 | 92 | 1011.1 |
| 20260905031348 | 66 | 12 | 1.0 | 2.0 | 0.00 | 0.32 | 0.32 | 92 | 1011.7 |
| 20260905030838 | 66 | 26 | 0.0 | 2.0 | 0.00 | 0.32 | 0.32 | 92 | 1011.7 |
| 20260905030350 | 66 | 26 | 0.0 | 2.0 | 0.00 | 0.32 | 0.32 | 92 | 1011.7 |
| 20260905030116 | 66 | 37 | 0.0 | 2.0 | 0.00 | 0.32 | 0.32 | 92 | 1010.9 |
| 20260905030055 | 66 | 0 | 0.0 | 1.0 | 0.00 | 0.32 | 0.32 | 91 | 1011.4 |
| 20260905025836 | 66 | 21 | 0.0 | 1.0 | 0.00 | 0.32 | 0.32 | 92 | 1011.6 |
| 20260905025347 | 66 | 21 | 0.0 | 0.0 | 0.00 | 0.32 | 0.32 | 92 | 1011.6 |
| 20260905024837 | 67 | 21 | 0.0 | 0.0 | 0.00 | 0.32 | 0.32 | 92 | 1011.5 |
| 20260905024605 | 66 | 21 | 0.0 | 0.0 | 0.00 | 0.32 | 0.32 | 92 | 1010.9 |
| 20260905024551 | 66 | 0 | 0.0 | 1.0 | 0.00 | 0.32 | 0.32 | 91 | 1011.3 |
| 20260905024347 | 67 | 21 | 0.0 | 1.0 | 0.00 | 0.32 | 0.32 | 92 | 1011.5 |
| 20260905023836 | 67 | 21 | 0.0 | 2.0 | 0.00 | 0.32 | 0.32 | 92 | 1011.4 |
| 20260905023349 | 67 | 13 | 0.0 | 2.0 | 0.00 | 0.32 | 0.32 | 92 | 1011.4 |
| 20260905023116 | 66 | 28 | 0.0 | 1.0 | 0.00 | 0.32 | 0.32 | 91 | 1011.3 |
| 20260905023113 | 66 | 13 | 0.0 | 2.0 | 0.00 | 0.32 | 0.32 | 91 | 1010.9 |
| 20260905022855 | 67 | 28 | 0.0 | 1.0 | 0.00 | 0.32 | 0.32 | 91 | 1011.4 |
| 20260905022345 | 67 | 28 | 0.0 | 2.0 | 0.00 | 0.32 | 0.32 | 92 | 1011.4 |
| 20260905021855 | 67 | 28 | 1.0 | 2.0 | 0.00 | 0.32 | 0.32 | 91 | 1011.4 |
| 20260905021604 | 67 | 28 | 0.0 | 1.0 | 0.00 | 0.32 | 0.32 | 91 | 1010.8 |
| 20260905021552 | 67 | 0 | 0.0 | 1.0 | 0.00 | 0.32 | 0.32 | 91 | 1011.3 |
| 20260905021406 | 67 | 28 | 0.0 | 0.0 | 0.00 | 0.32 | 0.32 | 91 | 1011.4 |
| 20260905020837 | 68 | 28 | 0.0 | 0.0 | 0.00 | 0.32 | 0.32 | 91 | 1011.6 |
| 20260905020350 | 68 | 28 | 0.0 | 1.0 | 0.00 | 0.32 | 0.32 | 91 | 1011.5 |
| 20260905020115 | 67 | 28 | 0.0 | 1.0 | 0.00 | 0.32 | 0.32 | 91 | 1010.9 |
| 20260905020043 | 67 | 0 | 0.0 | 1.0 | 0.00 | 0.32 | 0.32 | 91 | 1011.4 |
| 20260905015836 | 68 | 28 | 0.0 | 1.0 | 0.00 | 0.32 | 0.32 | 91 | 1011.5 |
| 20260905015347 | 68 | 28 | 0.0 | 0.0 | 0.00 | 0.32 | 0.32 | 91 | 1011.6 |
| 20260905014836 | 68 | 28 | 0.0 | 0.0 | 0.00 | 0.32 | 0.32 | 91 | 1011.5 |
| 20260905014605 | 68 | 28 | 0.0 | 0.0 | 0.00 | 0.32 | 0.32 | 91 | 1010.8 |
| 20260905014553 | 68 | 0 | 0.0 | 0.0 | 0.00 | 0.32 | 0.32 | 90 | 1011.4 |
| 20260905014346 | 68 | 28 | 0.0 | 0.0 | 0.00 | 0.32 | 0.32 | 91 | 1011.4 |
| 20260905013841 | 69 | 28 | 0.0 | 1.0 | 0.00 | 0.32 | 0.32 | 91 | 1011.4 |
| 20260905013351 | 69 | 28 | 0.0 | 1.0 | 0.00 | 0.32 | 0.32 | 90 | 1011.3 |
| 20260905013109 | 68 | 28 | 0.0 | 1.0 | 0.00 | 0.32 | 0.32 | 90 | 1010.8 |
| 20260905013050 | 68 | 0 | 0.0 | 1.0 | 0.00 | 0.32 | 0.32 | 90 | 1011.3 |
| 20260905012857 | 69 | 28 | 0.0 | 1.0 | 0.00 | 0.32 | 0.32 | 90 | 1011.4 |
| 20260905012405 | 69 | 28 | 0.0 | 0.0 | 0.00 | 0.32 | 0.32 | 90 | 1011.4 |
| 20260905011852 | 69 | 28 | 0.0 | 1.0 | 0.00 | 0.32 | 0.32 | 90 | 1011.4 |
| 20260905011615 | 69 | 28 | 0.0 | 1.0 | 0.00 | 0.32 | 0.32 | 90 | 1010.9 |
| 20260905011547 | 69 | 0 | 0.0 | 1.0 | 0.00 | 0.32 | 0.32 | 89 | 1011.4 |
| 20260905011341 | 69 | 28 | 0.0 | 1.0 | 0.00 | 0.32 | 0.32 | 90 | 1011.5 |
| 20260905010851 | 70 | 25 | 0.0 | 1.0 | 0.00 | 0.32 | 0.32 | 90 | 1011.4 |
| 20260905010343 | 70 | 294 | 1.0 | 2.0 | 0.00 | 0.32 | 0.32 | 90 | 1011.4 |
| 20260905010112 | 69 | 294 | 0.0 | 2.0 | 0.00 | 0.32 | 0.32 | 89 | 1010.8 |
| 20260905010107 | 69 | 0 | 0.0 | 2.0 | 0.00 | 0.32 | 0.32 | 89 | 1011.5 |
| 20260905005850 | 70 | 294 | 0.0 | 2.0 | 0.00 | 0.32 | 0.32 | 89 | 1011.5 |
| 20260905005359 | 70 | 294 | 1.0 | 2.0 | 0.00 | 0.32 | 0.32 | 89 | 1011.6 |
| 20260905004848 | 70 | 294 | 0.0 | 2.0 | 0.00 | 0.32 | 0.32 | 89 | 1011.5 |
| 20260905004609 | 70 | 294 | 0.0 | 2.0 | 0.00 | 0.32 | 0.32 | 89 | 1010.8 |
| 20260905004553 | 70 | 294 | 0.0 | 2.0 | 0.00 | 0.32 | 0.32 | 88 | 1011.4 |
| 20260905004356 | 71 | 294 | 1.0 | 2.0 | 0.00 | 0.32 | 0.32 | 89 | 1011.4 |
| 20260905003844 | 71 | 294 | 0.0 | 1.0 | 0.00 | 0.32 | 0.32 | 88 | 1011.3 |
| 20260905003354 | 71 | 294 | 0.0 | 1.0 | 0.00 | 0.32 | 0.32 | 88 | 1011.4 |
| 20260905003114 | 71 | 294 | 0.0 | 1.0 | 0.00 | 0.32 | 0.32 | 88 | 1010.7 |
| 20260905003052 | 71 | 0 | 0.0 | 1.0 | 0.00 | 0.32 | 0.32 | 87 | 1011.4 |
| 20260905002857 | 72 | 294 | 0.0 | 0.0 | 0.00 | 0.32 | 0.32 | 88 | 1011.3 |
| 20260905002348 | 72 | 294 | 0.0 | 0.0 | 0.00 | 0.32 | 0.32 | 87 | 1011.3 |
| 20260905001855 | 72 | 294 | 0.0 | 0.0 | 0.00 | 0.32 | 0.32 | 87 | 1011.3 |
| 20260905001604 | 72 | 294 | 0.0 | 0.0 | 0.00 | 0.32 | 0.32 | 87 | 1010.6 |
| 20260905001554 | 72 | 0 | 0.0 | 0.0 | 0.00 | 0.32 | 0.32 | 86 | 1011.3 |
| 20260905001407 | 73 | 294 | 0.0 | 0.0 | 0.00 | 0.32 | 0.32 | 87 | 1011.3 |
| 20260905000854 | 73 | 294 | 0.0 | 0.0 | 0.00 | 0.32 | 0.32 | 86 | 1011.2 |
| 20260905000406 | 73 | 294 | 0.0 | 0.0 | 0.00 | 0.32 | 0.32 | 86 | 1011.2 |
| 20260905000105 | 73 | 0 | 0.0 | 1.0 | 0.00 | 0.32 | 0.32 | 85 | 1011.1 |
| 20260904235849 | 74 | 294 | 0.0 | 0.0 | 0.00 | 0.32 | 0.32 | 85 | 1011.2 |
| 20260904235336 | 74 | 294 | 0.0 | 1.0 | 0.00 | 0.32 | 0.32 | 84 | 1011.1 |
| 20260904234846 | 74 | 294 | 0.0 | 1.0 | 0.00 | 0.32 | 0.32 | 84 | 1011.1 |
| 20260904234615 | 74 | 294 | 0.0 | 2.0 | 0.00 | 0.32 | 0.32 | 84 | 1010.5 |
| 20260904234553 | 74 | 0 | 0.0 | 2.0 | 0.00 | 0.32 | 0.32 | 83 | 1011.1 |
| 20260904234417 | 75 | 294 | 0.0 | 2.0 | 0.00 | 0.32 | 0.32 | 84 | 1011.1 |
| 20260904233837 | 75 | 294 | 1.0 | 2.0 | 0.00 | 0.32 | 0.32 | 83 | 1011.0 |
| 20260904233347 | 76 | 287 | 0.0 | 1.0 | 0.00 | 0.32 | 0.32 | 82 | 1011.0 |
| 20260904233112 | 75 | 287 | 0.0 | 2.0 | 0.00 | 0.32 | 0.32 | 81 | 1010.3 |
| 20260904233051 | 75 | 0 | 0.0 | 2.0 | 0.00 | 0.32 | 0.32 | 81 | 1011.0 |
| 20260904232853 | 76 | 287 | 0.0 | 2.0 | 0.00 | 0.32 | 0.32 | 81 | 1010.9 |
| 20260904232342 | 76 | 287 | 1.0 | 2.0 | 0.00 | 0.32 | 0.32 | 80 | 1011.0 |
| 20260904231915 | 77 | 294 | 1.0 | 2.0 | 0.00 | 0.32 | 0.32 | 78 | 1010.9 |
| 20260904231621 | 76 | 292 | 0.0 | 2.0 | 0.00 | 0.32 | 0.32 | 78 | 1010.2 |
| 20260904231546 | 76 | 0 | 0.0 | 2.0 | 0.00 | 0.32 | 0.32 | 77 | 1010.8 |
| 20260904231343 | 77 | 292 | 0.0 | 2.0 | 0.00 | 0.32 | 0.32 | 77 | 1010.9 |
| 20260904230913 | 77 | 299 | 1.0 | 3.0 | 0.00 | 0.32 | 0.32 | 76 | 1010.8 |
| 20260904230403 | 78 | 290 | 1.0 | 3.0 | 0.00 | 0.32 | 0.32 | 76 | 1010.8 |
| 20260904230111 | 77 | 289 | 1.0 | 3.0 | 0.00 | 0.32 | 0.32 | 75 | 1010.2 |
| 20260904225910 | 78 | 294 | 1.0 | 3.0 | 0.00 | 0.32 | 0.32 | 75 | 1010.8 |
| 20260904225338 | 78 | 290 | 2.0 | 4.0 | 0.00 | 0.32 | 0.32 | 73 | 1010.8 |
| 20260904224849 | 79 | 307 | 2.0 | 7.0 | 0.00 | 0.32 | 0.32 | 72 | 1010.8 |
| 20260904224616 | 78 | 304 | 2.0 | 7.0 | 0.00 | 0.32 | 0.32 | 72 | 1010.2 |
| 20260904224554 | 78 | 294 | 2.0 | 7.0 | 0.00 | 0.32 | 0.32 | 71 | 1010.9 |
| 20260904224358 | 79 | 274 | 1.0 | 7.0 | 0.00 | 0.32 | 0.32 | 73 | 1010.9 |
| 20260904223848 | 79 | 292 | 2.0 | 4.0 | 0.00 | 0.32 | 0.32 | 72 | 1011.0 |
| 20260904223359 | 79 | 277 | 2.0 | 4.0 | 0.00 | 0.32 | 0.32 | 71 | 1011.0 |
| 20260904223104 | 79 | 286 | 1.0 | 4.0 | 0.00 | 0.32 | 0.32 | 73 | 1010.3 |
| 20260904223053 | 79 | 0 | 2.0 | 4.0 | 0.00 | 0.32 | 0.32 | 72 | 1010.9 |
| 20260904222846 | 80 | 264 | 2.0 | 4.0 | 0.00 | 0.32 | 0.32 | 71 | 1011.0 |
| 20260904222336 | 80 | 276 | 3.0 | 7.0 | 0.00 | 0.32 | 0.32 | 70 | 1010.9 |
| 20260904221847 | 80 | 271 | 3.0 | 8.0 | 0.00 | 0.32 | 0.32 | 70 | 1010.9 |
| 20260904221615 | 80 | 273 | 2.0 | 8.0 | 0.00 | 0.32 | 0.32 | 69 | 1010.2 |
| 20260904221555 | 80 | 276 | 2.0 | 8.0 | 0.00 | 0.32 | 0.32 | 69 | 1010.7 |
| 20260904221338 | 80 | 265 | 3.0 | 8.0 | 0.00 | 0.32 | 0.32 | 69 | 1010.8 |
| 20260904220847 | 80 | 273 | 4.0 | 8.0 | 0.00 | 0.32 | 0.32 | 68 | 1010.8 |
| 20260904220359 | 80 | 309 | 3.0 | 8.0 | 0.00 | 0.32 | 0.32 | 68 | 1010.8 |
| 20260904220123 | 80 | 310 | 1.0 | 8.0 | 0.00 | 0.32 | 0.32 | 70 | 1010.1 |
| 20260904220058 | 80 | 264 | 1.0 | 8.0 | 0.00 | 0.32 | 0.32 | 70 | 1010.6 |
| 20260904215844 | 81 | 283 | 1.0 | 8.0 | 0.00 | 0.32 | 0.32 | 69 | 1010.7 |
| 20260904215355 | 81 | 290 | 4.0 | 8.0 | 0.00 | 0.32 | 0.32 | 66 | 1010.7 |
| 20260904214847 | 81 | 281 | 1.0 | 7.0 | 0.00 | 0.32 | 0.32 | 70 | 1010.7 |
| 20260904214615 | 80 | 325 | 2.0 | 7.0 | 0.00 | 0.32 | 0.32 | 69 | 1010.1 |
| 20260904214552 | 80 | 259 | 3.0 | 11.0 | 0.00 | 0.32 | 0.32 | 68 | 1010.6 |
| 20260904214337 | 81 | 275 | 3.0 | 11.0 | 0.00 | 0.32 | 0.32 | 68 | 1010.8 |
| 20260904213847 | 81 | 327 | 4.0 | 11.0 | 0.00 | 0.32 | 0.32 | 66 | 1010.8 |
| 20260904213358 | 81 | 293 | 5.0 | 10.0 | 0.00 | 0.32 | 0.32 | 64 | 1010.7 |
| 20260904213124 | 80 | 308 | 4.0 | 10.0 | 0.00 | 0.32 | 0.32 | 65 | 1010.1 |
| 20260904213055 | 80 | 279 | 1.0 | 6.0 | 0.00 | 0.32 | 0.32 | 65 | 1010.7 |
| 20260904212845 | 81 | 307 | 2.0 | 5.0 | 0.00 | 0.32 | 0.32 | 65 | 1010.7 |
| 20260904212354 | 81 | 256 | 1.0 | 5.0 | 0.00 | 0.32 | 0.32 | 66 | 1010.7 |
| 20260904211844 | 81 | 280 | 3.0 | 12.0 | 0.00 | 0.32 | 0.32 | 64 | 1010.7 |
| 20260904211613 | 81 | 260 | 2.0 | 12.0 | 0.00 | 0.32 | 0.32 | 64 | 1010.1 |
| 20260904211553 | 81 | 324 | 5.0 | 12.0 | 0.00 | 0.32 | 0.32 | 63 | 1010.7 |
| 20260904211416 | 81 | 280 | 6.0 | 12.0 | 0.00 | 0.32 | 0.32 | 62 | 1010.7 |
| 20260904210845 | 82 | 319 | 5.0 | 10.0 | 0.00 | 0.32 | 0.32 | 63 | 1010.7 |
| 20260904210340 | 82 | 29 | 2.0 | 6.0 | 0.00 | 0.32 | 0.32 | 65 | 1010.9 |
| 20260904210121 | 81 | 306 | 2.0 | 6.0 | 0.00 | 0.32 | 0.32 | 67 | 1010.2 |
| 20260904210052 | 81 | 299 | 1.0 | 7.0 | 0.00 | 0.32 | 0.32 | 67 | 1010.8 |
| 20260904205846 | 82 | 5 | 1.0 | 6.0 | 0.00 | 0.32 | 0.32 | 64 | 1010.8 |
| 20260904205412 | 82 | 262 | 2.0 | 7.0 | 0.00 | 0.32 | 0.32 | 64 | 1010.9 |
| 20260904204844 | 82 | 328 | 2.0 | 9.0 | 0.00 | 0.32 | 0.32 | 63 | 1011.0 |
| 20260904204606 | 82 | 286 | 1.0 | 9.0 | 0.00 | 0.32 | 0.32 | 65 | 1010.4 |
| 20260904204553 | 82 | 330 | 3.0 | 9.0 | 0.00 | 0.32 | 0.32 | 65 | 1011.0 |
| 20260904204352 | 82 | 298 | 4.0 | 9.0 | 0.00 | 0.32 | 0.32 | 64 | 1011.0 |
| 20260904203841 | 82 | 28 | 2.0 | 6.0 | 0.00 | 0.32 | 0.32 | 69 | 1011.0 |
| 20260904203350 | 82 | 272 | 2.0 | 6.0 | 0.00 | 0.32 | 0.32 | 65 | 1011.0 |
| 20260904203110 | 82 | 59 | 1.0 | 6.0 | 0.00 | 0.32 | 0.32 | 65 | 1010.5 |
| 20260904203056 | 82 | 344 | 2.0 | 6.0 | 0.00 | 0.32 | 0.32 | 63 | 1011.1 |
| 20260904202856 | 82 | 336 | 3.0 | 6.0 | 0.00 | 0.32 | 0.32 | 63 | 1011.1 |
| 20260904202345 | 83 | 330 | 2.0 | 5.0 | 0.00 | 0.32 | 0.32 | 64 | 1011.2 |
| 20260904201854 | 83 | 323 | 2.0 | 5.0 | 0.00 | 0.32 | 0.32 | 63 | 1011.1 |
| 20260904201619 | 82 | 292 | 2.0 | 4.0 | 0.00 | 0.32 | 0.32 | 63 | 1010.5 |
| 20260904201553 | 82 | 326 | 2.0 | 8.0 | 0.00 | 0.32 | 0.32 | 63 | 1011.2 |
| 20260904201344 | 83 | 351 | 3.0 | 8.0 | 0.00 | 0.32 | 0.32 | 63 | 1011.1 |
| 20260904200853 | 83 | 24 | 3.0 | 9.0 | 0.00 | 0.32 | 0.32 | 62 | 1011.2 |
| 20260904200344 | 84 | 290 | 3.0 | 9.0 | 0.00 | 0.32 | 0.32 | 62 | 1011.2 |
| 20260904200109 | 83 | 317 | 1.0 | 6.0 | 0.00 | 0.32 | 0.32 | 62 | 1010.6 |
| 20260904200058 | 83 | 311 | 1.0 | 7.0 | 0.00 | 0.32 | 0.32 | 61 | 1011.2 |
| 20260904195851 | 84 | 319 | 2.0 | 6.0 | 0.00 | 0.32 | 0.32 | 61 | 1011.2 |
| 20260904195343 | 85 | 274 | 3.0 | 9.0 | 0.00 | 0.32 | 0.32 | 60 | 1011.2 |
| 20260904194853 | 86 | 304 | 5.0 | 9.0 | 0.00 | 0.32 | 0.32 | 59 | 1011.1 |
| 20260904194620 | 85 | 16 | 2.0 | 7.0 | 0.00 | 0.32 | 0.32 | 61 | 1010.4 |
| 20260904194545 | 85 | 300 | 1.0 | 7.0 | 0.00 | 0.32 | 0.32 | 60 | 1011.1 |
| 20260904194343 | 86 | 276 | 2.0 | 7.0 | 0.00 | 0.32 | 0.32 | 61 | 1011.0 |
| 20260904193835 | 86 | 269 | 2.0 | 6.0 | 0.00 | 0.32 | 0.32 | 62 | 1011.1 |
| 20260904193347 | 85 | 337 | 2.0 | 12.0 | 0.00 | 0.32 | 0.32 | 60 | 1011.2 |
| 20260904193114 | 85 | 34 | 1.0 | 12.0 | 0.00 | 0.32 | 0.32 | 60 | 1010.6 |
| 20260904193054 | 85 | 0 | 4.0 | 12.0 | 0.00 | 0.32 | 0.32 | 59 | 1011.2 |
| 20260904192917 | 85 | 319 | 6.0 | 12.0 | 0.00 | 0.32 | 0.32 | 58 | 1011.4 |
| 20260904192346 | 85 | 287 | 1.0 | 9.0 | 0.00 | 0.32 | 0.32 | 63 | 1011.3 |
| 20260904191837 | 84 | 300 | 3.0 | 9.0 | 0.00 | 0.32 | 0.32 | 61 | 1011.4 |
| 20260904191554 | 84 | 0 | 2.0 | 9.0 | 0.00 | 0.32 | 0.32 | 61 | 1011.4 |
| 20260904191347 | 85 | 31 | 4.0 | 9.0 | 0.00 | 0.32 | 0.32 | 63 | 1011.4 |
| 20260904190838 | 86 | 9 | 4.0 | 9.0 | 0.00 | 0.32 | 0.32 | 61 | 1011.6 |
| 20260904190350 | 86 | 252 | 2.0 | 5.0 | 0.00 | 0.32 | 0.32 | 62 | 1011.7 |
| 20260904190114 | 85 | 360 | 1.0 | 7.0 | 0.00 | 0.32 | 0.32 | 64 | 1011.1 |
| 20260904190053 | 84 | 305 | 2.0 | 7.0 | 0.00 | 0.32 | 0.32 | 64 | 1011.6 |
| 20260904185838 | 84 | 34 | 3.0 | 7.0 | 0.00 | 0.32 | 0.32 | 62 | 1011.8 |
| 20260904185350 | 83 | 288 | 3.0 | 9.0 | 0.00 | 0.32 | 0.32 | 66 | 1011.9 |
| 20260904184842 | 84 | 15 | 2.0 | 9.0 | 0.00 | 0.32 | 0.32 | 62 | 1011.9 |
| 20260904184611 | 84 | 20 | 3.0 | 9.0 | 0.00 | 0.32 | 0.32 | 61 | 1011.2 |
| 20260904184556 | 84 | 5 | 3.0 | 8.0 | 0.00 | 0.32 | 0.32 | 61 | 1011.7 |
| 20260904184352 | 85 | 14 | 3.0 | 8.0 | 0.00 | 0.32 | 0.32 | 62 | 1011.8 |
| 20260904183903 | 85 | 321 | 1.0 | 8.0 | 0.00 | 0.32 | 0.32 | 63 | 1011.8 |
| 20260904183353 | 85 | 285 | 2.0 | 9.0 | 0.00 | 0.32 | 0.32 | 63 | 1011.8 |
| 20260904183117 | 84 | 325 | 2.0 | 9.0 | 0.00 | 0.32 | 0.32 | 62 | 1011.1 |
| 20260904183109 | 84 | 301 | 4.0 | 9.0 | 0.00 | 0.32 | 0.32 | 60 | 1011.6 |
| 20260904182840 | 85 | 307 | 5.0 | 9.0 | 0.00 | 0.32 | 0.32 | 63 | 1011.7 |
| 20260904182350 | 84 | 234 | 3.0 | 8.0 | 0.00 | 0.32 | 0.32 | 65 | 1011.8 |
| 20260904181846 | 84 | 272 | 3.0 | 8.0 | 0.00 | 0.32 | 0.32 | 61 | 1011.9 |
| 20260904181608 | 83 | 9 | 3.0 | 9.0 | 0.00 | 0.32 | 0.32 | 65 | 1011.3 |
| 20260904181552 | 83 | 277 | 1.0 | 12.0 | 0.00 | 0.32 | 0.32 | 65 | 1011.8 |
| 20260904181353 | 83 | 301 | 2.0 | 12.0 | 0.00 | 0.32 | 0.32 | 62 | 1012.0 |
| 20260904180842 | 84 | 283 | 4.0 | 12.0 | 0.00 | 0.32 | 0.32 | 61 | 1011.9 |
| 20260904180352 | 84 | 16 | 4.0 | 11.0 | 0.00 | 0.32 | 0.32 | 63 | 1011.8 |
| 20260904180113 | 84 | 267 | 3.0 | 11.0 | 0.00 | 0.32 | 0.32 | 66 | 1011.1 |
| 20260904180047 | 84 | 292 | 4.0 | 11.0 | 0.00 | 0.32 | 0.32 | 64 | 1011.6 |
| 20260904175856 | 85 | 278 | 4.0 | 10.0 | 0.00 | 0.32 | 0.32 | 60 | 1011.8 |
| 20260904175346 | 85 | 22 | 4.0 | 10.0 | 0.00 | 0.32 | 0.32 | 61 | 1011.7 |
| 20260904174855 | 86 | 338 | 4.0 | 9.0 | 0.00 | 0.32 | 0.32 | 62 | 1011.7 |
| 20260904174619 | 86 | 360 | 2.0 | 9.0 | 0.00 | 0.32 | 0.32 | 61 | 1011.0 |
| 20260904174553 | 85 | 14 | 2.0 | 9.0 | 0.00 | 0.32 | 0.32 | 61 | 1011.5 |
| 20260904174342 | 86 | 348 | 3.0 | 9.0 | 0.00 | 0.32 | 0.32 | 63 | 1011.7 |
| 20260904173851 | 86 | 284 | 3.0 | 9.0 | 0.00 | 0.32 | 0.32 | 61 | 1011.7 |
| 20260904173400 | 85 | 293 | 3.0 | 9.0 | 0.00 | 0.32 | 0.32 | 63 | 1011.8 |
| 20260904173119 | 84 | 249 | 4.0 | 9.0 | 0.00 | 0.32 | 0.32 | 61 | 1011.0 |
| 20260904173056 | 84 | 296 | 4.0 | 9.0 | 0.00 | 0.32 | 0.32 | 60 | 1011.5 |
| 20260904172845 | 85 | 36 | 4.0 | 9.0 | 0.00 | 0.32 | 0.32 | 63 | 1011.7 |
| 20260904172355 | 85 | 340 | 4.0 | 9.0 | 0.00 | 0.32 | 0.32 | 64 | 1011.6 |
| 20260904171843 | 85 | 288 | 2.0 | 10.0 | 0.00 | 0.32 | 0.32 | 64 | 1011.6 |
| 20260904171612 | 84 | 5 | 2.0 | 10.0 | 0.00 | 0.32 | 0.32 | 65 | 1010.9 |
| 20260904171604 | 84 | 289 | 2.0 | 10.0 | 0.00 | 0.32 | 0.32 | 65 | 1011.4 |
| 20260904171352 | 84 | 333 | 2.0 | 10.0 | 0.00 | 0.32 | 0.32 | 65 | 1011.7 |
| 20260904170843 | 84 | 30 | 3.0 | 12.0 | 0.00 | 0.32 | 0.32 | 65 | 1011.7 |
| 20260904170354 | 84 | 5 | 4.0 | 12.0 | 0.00 | 0.32 | 0.32 | 63 | 1011.8 |
| 20260904170118 | 83 | 327 | 4.0 | 12.0 | 0.00 | 0.32 | 0.32 | 65 | 1011.1 |
| 20260904170057 | 83 | 5 | 2.0 | 12.0 | 0.00 | 0.32 | 0.32 | 64 | 1011.6 |
| 20260904165842 | 84 | 46 | 2.0 | 12.0 | 0.00 | 0.32 | 0.32 | 66 | 1011.8 |
| 20260904165353 | 84 | 31 | 3.0 | 10.0 | 0.00 | 0.32 | 0.32 | 65 | 1011.9 |
| 20260904164844 | 83 | 312 | 4.0 | 10.0 | 0.00 | 0.32 | 0.32 | 67 | 1012.0 |
| 20260904164612 | 82 | 267 | 3.0 | 9.0 | 0.00 | 0.32 | 0.32 | 69 | 1011.2 |
| 20260904164609 | 82 | 263 | 3.0 | 10.0 | 0.00 | 0.32 | 0.32 | 65 | 1011.8 |
| 20260904164354 | 83 | 344 | 4.0 | 10.0 | 0.00 | 0.32 | 0.32 | 65 | 1012.0 |
| 20260904163905 | 84 | 327 | 4.0 | 12.0 | 0.00 | 0.32 | 0.32 | 67 | 1011.8 |
| 20260904163357 | 83 | 355 | 5.0 | 12.0 | 0.00 | 0.32 | 0.32 | 68 | 1011.8 |
| 20260904163122 | 82 | 314 | 5.0 | 12.0 | 0.00 | 0.32 | 0.32 | 67 | 1011.1 |
| 20260904163049 | 82 | 9 | 5.0 | 12.0 | 0.00 | 0.32 | 0.32 | 70 | 1011.5 |
| 20260904162844 | 82 | 267 | 4.0 | 12.0 | 0.00 | 0.32 | 0.32 | 71 | 1011.8 |
| 20260904162354 | 81 | 274 | 3.0 | 12.0 | 0.00 | 0.32 | 0.32 | 75 | 1011.8 |
| 20260904161845 | 81 | 5 | 3.0 | 9.0 | 0.00 | 0.32 | 0.32 | 73 | 1011.9 |
| 20260904161613 | 81 | 42 | 2.0 | 10.0 | 0.00 | 0.32 | 0.32 | 72 | 1011.2 |
| 20260904161556 | 81 | 348 | 2.0 | 10.0 | 0.00 | 0.32 | 0.32 | 73 | 1011.7 |
| 20260904161415 | 81 | 15 | 3.0 | 10.0 | 0.00 | 0.32 | 0.32 | 74 | 1011.9 |
| 20260904160845 | 82 | 291 | 4.0 | 11.0 | 0.00 | 0.32 | 0.32 | 71 | 1012.1 |
| 20260904160356 | 83 | 350 | 6.0 | 11.0 | 0.00 | 0.32 | 0.32 | 70 | 1012.1 |
| 20260904160121 | 83 | 10 | 3.0 | 10.0 | 0.00 | 0.32 | 0.32 | 71 | 1011.2 |
| 20260904160055 | 84 | 340 | 4.0 | 12.0 | 0.00 | 0.32 | 0.32 | 70 | 1011.7 |
| 20260904155841 | 84 | 269 | 5.0 | 12.0 | 0.00 | 0.32 | 0.32 | 70 | 1011.8 |
| 20260904155412 | 84 | 316 | 5.0 | 12.0 | 0.00 | 0.32 | 0.32 | 71 | 1011.8 |
| 20260904154901 | 83 | 346 | 3.0 | 11.0 | 0.00 | 0.32 | 0.32 | 73 | 1011.8 |
| 20260904154610 | 82 | 33 | 3.0 | 11.0 | 0.00 | 0.32 | 0.32 | 74 | 1011.2 |
| 20260904154552 | 82 | 276 | 4.0 | 15.0 | 0.00 | 0.32 | 0.32 | 72 | 1011.7 |
| 20260904154411 | 83 | 5 | 6.0 | 15.0 | 0.00 | 0.32 | 0.32 | 73 | 1012.1 |
| 20260904153840 | 83 | 30 | 5.0 | 15.0 | 0.00 | 0.32 | 0.32 | 74 | 1012.1 |
| 20260904153351 | 83 | 321 | 4.0 | 15.0 | 0.00 | 0.32 | 0.32 | 73 | 1012.2 |
| 20260904153116 | 82 | 294 | 3.0 | 15.0 | 0.00 | 0.32 | 0.32 | 76 | 1011.6 |
| 20260904153105 | 82 | 360 | 4.0 | 15.0 | 0.00 | 0.32 | 0.32 | 75 | 1011.9 |
| 20260904152858 | 82 | 286 | 5.0 | 15.0 | 0.00 | 0.32 | 0.32 | 75 | 1012.3 |
| 20260904152346 | 82 | 281 | 3.0 | 10.0 | 0.00 | 0.32 | 0.32 | 75 | 1012.3 |
| 20260904151854 | 81 | 304 | 4.0 | 10.0 | 0.00 | 0.32 | 0.32 | 76 | 1012.3 |
| 20260904151623 | 81 | 360 | 4.0 | 10.0 | 0.00 | 0.32 | 0.32 | 78 | 1011.6 |
| 20260904151555 | 81 | 273 | 3.0 | 10.0 | 0.00 | 0.32 | 0.32 | 77 | 1012.1 |
| 20260904151343 | 81 | 351 | 3.0 | 9.0 | 0.00 | 0.32 | 0.32 | 77 | 1012.3 |
| 20260904150852 | 80 | 286 | 4.0 | 9.0 | 0.00 | 0.32 | 0.32 | 77 | 1012.3 |
| 20260904150403 | 80 | 311 | 3.0 | 8.0 | 0.00 | 0.32 | 0.32 | 79 | 1012.3 |
| 20260904150110 | 79 | 348 | 3.0 | 10.0 | 0.00 | 0.32 | 0.32 | 79 | 1011.7 |
| 20260904150054 | 79 | 16 | 3.0 | 10.0 | 0.00 | 0.32 | 0.32 | 80 | 1012.2 |
| 20260904145849 | 79 | 26 | 3.0 | 10.0 | 0.00 | 0.32 | 0.32 | 82 | 1012.3 |
| 20260904145340 | 78 | 19 | 5.0 | 9.0 | 0.00 | 0.32 | 0.32 | 83 | 1012.4 |
| 20260904144850 | 78 | 250 | 2.0 | 10.0 | 0.00 | 0.32 | 0.32 | 85 | 1012.3 |
| 20260904144620 | 77 | 355 | 2.0 | 10.0 | 0.00 | 0.32 | 0.32 | 86 | 1011.7 |
| 20260904144551 | 77 | 327 | 1.0 | 10.0 | 0.00 | 0.32 | 0.32 | 86 | 1012.3 |
| 20260904144341 | 77 | 26 | 3.0 | 10.0 | 0.00 | 0.32 | 0.32 | 86 | 1012.4 |
| 20260904143850 | 77 | 300 | 2.0 | 11.0 | 0.00 | 0.32 | 0.32 | 87 | 1012.3 |
| 20260904143345 | 77 | 336 | 2.0 | 11.0 | 0.00 | 0.32 | 0.32 | 87 | 1012.3 |
| 20260904143106 | 77 | 340 | 5.0 | 11.0 | 0.00 | 0.32 | 0.32 | 87 | 1011.7 |
| 20260904143048 | 76 | 360 | 4.0 | 11.0 | 0.00 | 0.32 | 0.32 | 87 | 1012.2 |
| 20260904142848 | 77 | 329 | 4.0 | 10.0 | 0.00 | 0.32 | 0.32 | 87 | 1012.3 |
| 20260904142356 | 76 | 28 | 3.0 | 10.0 | 0.00 | 0.32 | 0.32 | 89 | 1012.4 |
| 20260904141845 | 76 | 291 | 4.0 | 11.0 | 0.00 | 0.32 | 0.32 | 89 | 1012.4 |
| 20260904141606 | 75 | 63 | 2.0 | 11.0 | 0.00 | 0.32 | 0.32 | 89 | 1011.7 |
| 20260904141555 | 75 | 313 | 3.0 | 11.0 | 0.00 | 0.32 | 0.32 | 89 | 1012.2 |
| 20260904141353 | 76 | 292 | 4.0 | 11.0 | 0.00 | 0.32 | 0.32 | 89 | 1012.3 |
| 20260904140841 | 75 | 210 | 2.0 | 9.0 | 0.00 | 0.32 | 0.32 | 90 | 1012.3 |
| 20260904140411 | 75 | 269 | 2.0 | 9.0 | 0.00 | 0.32 | 0.32 | 90 | 1012.3 |
| 20260904140111 | 74 | 15 | 4.0 | 12.0 | 0.00 | 0.32 | 0.32 | 91 | 1011.7 |
| 20260904140055 | 74 | 339 | 3.0 | 12.0 | 0.00 | 0.32 | 0.32 | 90 | 1012.2 |
| 20260904135837 | 75 | 332 | 3.0 | 12.0 | 0.00 | 0.32 | 0.32 | 91 | 1012.3 |
| 20260904135347 | 75 | 329 | 3.0 | 11.0 | 0.00 | 0.32 | 0.32 | 92 | 1012.3 |
| 20260904134836 | 74 | 360 | 5.0 | 11.0 | 0.00 | 0.32 | 0.32 | 92 | 1012.3 |
| 20260904134621 | 74 | 19 | 2.0 | 8.0 | 0.00 | 0.32 | 0.32 | 93 | 1011.6 |
| 20260904134559 | 74 | 355 | 2.0 | 9.0 | 0.00 | 0.32 | 0.32 | 92 | 1012.1 |
| 20260904134346 | 74 | 297 | 2.0 | 9.0 | 0.00 | 0.32 | 0.32 | 93 | 1012.3 |
| 20260904133854 | 74 | 18 | 4.0 | 9.0 | 0.00 | 0.32 | 0.32 | 94 | 1012.2 |
| 20260904133342 | 74 | 282 | 2.0 | 9.0 | 0.00 | 0.32 | 0.32 | 94 | 1012.3 |
| 20260904133107 | 73 | 281 | 3.0 | 9.0 | 0.00 | 0.32 | 0.32 | 94 | 1011.6 |
| 20260904133049 | 73 | 275 | 4.0 | 9.0 | 0.00 | 0.32 | 0.32 | 93 | 1012.1 |
| 20260904132850 | 73 | 295 | 5.0 | 9.0 | 0.00 | 0.32 | 0.32 | 94 | 1012.2 |
| 20260904132340 | 73 | 315 | 3.0 | 10.0 | 0.00 | 0.32 | 0.32 | 94 | 1012.2 |
| 20260904131850 | 73 | 15 | 4.0 | 10.0 | 0.00 | 0.32 | 0.32 | 95 | 1012.2 |
| 20260904131617 | 72 | 324 | 3.0 | 9.0 | 0.00 | 0.32 | 0.32 | 95 | 1011.5 |
| 20260904131604 | 72 | 298 | 2.0 | 9.0 | 0.00 | 0.32 | 0.32 | 94 | 1011.9 |
| 20260904131340 | 73 | 341 | 2.0 | 8.0 | 0.00 | 0.32 | 0.32 | 95 | 1012.1 |
| 20260904130851 | 73 | 43 | 2.0 | 8.0 | 0.00 | 0.32 | 0.32 | 95 | 1012.2 |
| 20260904130340 | 72 | 311 | 2.0 | 8.0 | 0.00 | 0.32 | 0.32 | 95 | 1012.2 |
| 20260904130106 | 72 | 15 | 1.0 | 8.0 | 0.00 | 0.32 | 0.32 | 95 | 1011.5 |
| 20260904130053 | 72 | 310 | 3.0 | 8.0 | 0.00 | 0.32 | 0.32 | 94 | 1012.1 |
| 20260904125909 | 72 | 289 | 4.0 | 8.0 | 0.00 | 0.32 | 0.32 | 95 | 1012.3 |
| 20260904125338 | 72 | 351 | 2.0 | 8.0 | 0.00 | 0.32 | 0.32 | 95 | 1012.3 |
| 20260904124849 | 72 | 304 | 2.0 | 5.0 | 0.00 | 0.32 | 0.32 | 95 | 1012.3 |
| 20260904124627 | 71 | 316 | 1.0 | 8.0 | 0.00 | 0.32 | 0.32 | 95 | 1011.6 |
| 20260904124551 | 71 | 284 | 2.0 | 8.0 | 0.00 | 0.32 | 0.32 | 94 | 1012.1 |
| 20260904124340 | 72 | 360 | 2.0 | 8.0 | 0.00 | 0.32 | 0.32 | 95 | 1012.2 |
| 20260904123851 | 71 | 20 | 2.0 | 8.0 | 0.00 | 0.32 | 0.32 | 95 | 1012.1 |
| 20260904123340 | 71 | 10 | 2.0 | 5.0 | 0.00 | 0.32 | 0.32 | 95 | 1012.2 |
| 20260904123111 | 71 | 25 | 2.0 | 9.0 | 0.00 | 0.32 | 0.32 | 95 | 1011.5 |
| 20260904123056 | 71 | 0 | 2.0 | 9.0 | 0.00 | 0.32 | 0.32 | 94 | 1012.0 |
| 20260904122909 | 71 | 318 | 2.0 | 9.0 | 0.00 | 0.32 | 0.32 | 95 | 1012.2 |
| 20260904122337 | 71 | 26 | 3.0 | 9.0 | 0.00 | 0.32 | 0.32 | 95 | 1012.1 |
| 20260904121846 | 71 | 17 | 3.0 | 7.0 | 0.00 | 0.32 | 0.32 | 95 | 1012.3 |
| 20260904121617 | 70 | 260 | 1.0 | 6.0 | 0.00 | 0.32 | 0.32 | 95 | 1011.6 |
| 20260904121552 | 70 | 316 | 1.0 | 6.0 | 0.00 | 0.32 | 0.32 | 94 | 1012.0 |
| 20260904121336 | 71 | 334 | 3.0 | 6.0 | 0.00 | 0.32 | 0.32 | 95 | 1012.2 |
| 20260904120845 | 71 | 10 | 2.0 | 6.0 | 0.00 | 0.32 | 0.32 | 95 | 1012.2 |
| 20260904120356 | 71 | 360 | 2.0 | 5.0 | 0.00 | 0.32 | 0.32 | 95 | 1012.2 |
| 20260904120047 | 70 | 0 | 1.0 | 5.0 | 0.00 | 0.32 | 0.32 | 94 | 1011.9 |
| 20260904120005 | 70 | 360 | 1.0 | 5.0 | 0.00 | 0.32 | 0.32 | 95 | 1011.4 |
| 20260904115903 | 70 | 34 | 2.0 | 5.0 | 0.00 | 0.32 | 0.32 | 95 | 1012.1 |
| 20260904115352 | 70 | 303 | 2.0 | 6.0 | 0.00 | 0.32 | 0.32 | 95 | 1012.1 |
| 20260904114843 | 70 | 20 | 3.0 | 6.0 | 0.00 | 0.32 | 0.32 | 95 | 1012.2 |
| 20260904114612 | 70 | 360 | 1.0 | 7.0 | 0.00 | 0.32 | 0.32 | 95 | 1011.6 |
| 20260904114553 | 70 | 325 | 1.0 | 7.0 | 0.00 | 0.32 | 0.32 | 94 | 1012.1 |
| 20260904114354 | 70 | 300 | 1.0 | 7.0 | 0.00 | 0.32 | 0.32 | 95 | 1012.3 |
| 20260904113844 | 70 | 290 | 3.0 | 5.0 | 0.00 | 0.32 | 0.32 | 95 | 1012.1 |
| 20260904113340 | 70 | 301 | 2.0 | 4.0 | 0.00 | 0.32 | 0.32 | 95 | 1012.0 |
| 20260904113123 | 69 | 292 | 1.0 | 2.0 | 0.00 | 0.32 | 0.32 | 95 | 1011.2 |
| 20260904113055 | 69 | 292 | 0.0 | 3.0 | 0.00 | 0.32 | 0.32 | 94 | 1011.7 |
| 20260904112846 | 70 | 302 | 1.0 | 3.0 | 0.00 | 0.32 | 0.32 | 95 | 1011.8 |
| 20260904112413 | 70 | 290 | 1.0 | 3.0 | 0.00 | 0.32 | 0.32 | 95 | 1011.8 |
| 20260904111845 | 70 | 319 | 1.0 | 6.0 | 0.00 | 0.32 | 0.32 | 95 | 1011.7 |
| 20260904111610 | 69 | 344 | 1.0 | 6.0 | 0.00 | 0.32 | 0.32 | 95 | 1011.1 |
| 20260904111550 | 69 | 355 | 1.0 | 6.0 | 0.00 | 0.32 | 0.32 | 94 | 1011.6 |
| 20260904111355 | 70 | 317 | 2.0 | 6.0 | 0.00 | 0.32 | 0.32 | 95 | 1011.8 |
| 20260904110843 | 69 | 28 | 2.0 | 3.0 | 0.00 | 0.32 | 0.32 | 95 | 1011.6 |
| 20260904110414 | 69 | 288 | 1.0 | 6.0 | 0.00 | 0.32 | 0.32 | 95 | 1011.7 |
| 20260904110116 | 69 | 360 | 0.0 | 6.0 | 0.00 | 0.32 | 0.32 | 95 | 1011.1 |
| 20260904110049 | 69 | 324 | 1.0 | 6.0 | 0.00 | 0.32 | 0.32 | 94 | 1011.6 |
| 20260904105841 | 69 | 323 | 2.0 | 6.0 | 0.00 | 0.32 | 0.32 | 95 | 1011.7 |
| 20260904105412 | 69 | 296 | 2.0 | 4.0 | 0.00 | 0.32 | 0.32 | 95 | 1011.8 |
| 20260904104843 | 69 | 267 | 1.0 | 5.0 | 0.00 | 0.32 | 0.32 | 95 | 1011.8 |
| 20260904104610 | 69 | 293 | 0.0 | 5.0 | 0.00 | 0.32 | 0.32 | 95 | 1011.2 |
| 20260904104558 | 69 | 0 | 1.0 | 6.0 | 0.00 | 0.32 | 0.32 | 94 | 1011.6 |
| 20260904104352 | 69 | 346 | 2.0 | 5.0 | 0.00 | 0.32 | 0.32 | 95 | 1011.8 |
| 20260904103900 | 70 | 306 | 2.0 | 4.0 | 0.00 | 0.32 | 0.32 | 95 | 1011.6 |
| 20260904103412 | 70 | 320 | 0.0 | 1.0 | 0.00 | 0.32 | 0.32 | 95 | 1011.6 |
| 20260904103110 | 69 | 5 | 0.0 | 1.0 | 0.00 | 0.32 | 0.32 | 95 | 1010.9 |
| 20260904103057 | 69 | 0 | 0.0 | 1.0 | 0.00 | 0.32 | 0.32 | 94 | 1011.4 |
| 20260904102836 | 70 | 5 | 0.0 | 1.0 | 0.00 | 0.32 | 0.32 | 95 | 1011.5 |
| 20260904102346 | 70 | 317 | 0.0 | 4.0 | 0.00 | 0.32 | 0.32 | 95 | 1011.5 |
| 20260904101841 | 70 | 313 | 1.0 | 4.0 | 0.00 | 0.32 | 0.32 | 95 | 1011.4 |
| 20260904101607 | 69 | 277 | 0.0 | 4.0 | 0.00 | 0.32 | 0.32 | 95 | 1010.8 |
| 20260904101559 | 69 | 0 | 1.0 | 4.0 | 0.00 | 0.32 | 0.32 | 94 | 1011.2 |
| 20260904101353 | 70 | 21 | 2.0 | 4.0 | 0.00 | 0.32 | 0.32 | 95 | 1011.4 |
| 20260904100842 | 70 | 298 | 1.0 | 3.0 | 0.00 | 0.32 | 0.32 | 95 | 1011.4 |
| 20260904100353 | 70 | 265 | 1.0 | 2.0 | 0.00 | 0.32 | 0.32 | 95 | 1011.3 |
| 20260904100115 | 70 | 254 | 0.0 | 2.0 | 0.00 | 0.32 | 0.32 | 95 | 1010.7 |
| 20260904100058 | 70 | 0 | 0.0 | 2.0 | 0.00 | 0.32 | 0.32 | 94 | 1011.1 |
| 20260904095838 | 70 | 5 | 0.0 | 1.0 | 0.00 | 0.32 | 0.32 | 95 | 1011.2 |
| 20260904095349 | 70 | 5 | 0.0 | 3.0 | 0.00 | 0.32 | 0.32 | 95 | 1011.2 |
| 20260904094841 | 71 | 5 | 0.0 | 3.0 | 0.00 | 0.32 | 0.32 | 95 | 1011.0 |
| 20260904094609 | 70 | 293 | 0.0 | 3.0 | 0.00 | 0.32 | 0.32 | 95 | 1010.4 |
| 20260904094605 | 70 | 0 | 1.0 | 3.0 | 0.00 | 0.32 | 0.32 | 94 | 1010.8 |
| 20260904094351 | 71 | 288 | 1.0 | 2.0 | 0.00 | 0.32 | 0.32 | 95 | 1011.0 |
| 20260904093842 | 71 | 331 | 0.0 | 1.0 | 0.00 | 0.32 | 0.32 | 95 | 1011.0 |
| 20260904093353 | 71 | 331 | 0.0 | 1.0 | 0.00 | 0.32 | 0.32 | 95 | 1011.0 |
| 20260904093120 | 71 | 331 | 0.0 | 1.0 | 0.00 | 0.32 | 0.32 | 95 | 1010.4 |
| 20260904093054 | 71 | 331 | 0.0 | 1.0 | 0.00 | 0.32 | 0.32 | 94 | 1010.8 |
| 20260904092840 | 71 | 331 | 0.0 | 1.0 | 0.00 | 0.32 | 0.32 | 95 | 1011.0 |
| 20260904092351 | 71 | 355 | 0.0 | 1.0 | 0.00 | 0.32 | 0.32 | 95 | 1010.9 |
| 20260904091842 | 71 | 355 | 0.0 | 1.0 | 0.00 | 0.32 | 0.32 | 95 | 1010.9 |
| 20260904091610 | 71 | 311 | 0.0 | 1.0 | 0.00 | 0.32 | 0.32 | 95 | 1010.3 |
| 20260904091606 | 71 | 0 | 0.0 | 1.0 | 0.00 | 0.32 | 0.32 | 94 | 1010.7 |
| 20260904091353 | 71 | 311 | 0.0 | 1.0 | 0.00 | 0.32 | 0.32 | 95 | 1011.0 |
| 20260904090843 | 71 | 311 | 0.0 | 1.0 | 0.00 | 0.32 | 0.32 | 95 | 1011.0 |
| 20260904090353 | 72 | 311 | 0.0 | 1.0 | 0.00 | 0.32 | 0.32 | 95 | 1010.9 |
| 20260904090117 | 71 | 311 | 0.0 | 1.0 | 0.00 | 0.32 | 0.32 | 95 | 1010.2 |
| 20260904090056 | 71 | 0 | 0.0 | 1.0 | 0.00 | 0.32 | 0.32 | 94 | 1010.7 |
| 20260904085838 | 72 | 311 | 0.0 | 1.0 | 0.00 | 0.32 | 0.32 | 95 | 1010.9 |
| 20260904085349 | 72 | 311 | 0.0 | 2.0 | 0.00 | 0.32 | 0.32 | 95 | 1010.9 |
| 20260904084838 | 72 | 308 | 0.0 | 2.0 | 0.00 | 0.32 | 0.32 | 95 | 1011.0 |
| 20260904084611 | 72 | 308 | 0.0 | 2.0 | 0.00 | 0.32 | 0.32 | 95 | 1010.3 |
| 20260904084556 | 72 | 308 | 0.0 | 2.0 | 0.00 | 0.32 | 0.32 | 94 | 1010.8 |
| 20260904084349 | 72 | 294 | 0.0 | 1.0 | 0.00 | 0.32 | 0.32 | 95 | 1010.8 |
| 20260904083840 | 72 | 294 | 0.0 | 1.0 | 0.00 | 0.32 | 0.32 | 95 | 1010.7 |
| 20260904083353 | 72 | 294 | 0.0 | 1.0 | 0.01 | 0.32 | 0.32 | 95 | 1010.7 |
| 20260904083120 | 72 | 294 | 0.0 | 1.0 | 0.01 | 0.32 | 0.32 | 95 | 1010.1 |
| 20260904083059 | 72 | 294 | 0.0 | 3.0 | 0.01 | 0.32 | 0.32 | 94 | 1010.6 |
| 20260904082844 | 72 | 294 | 0.0 | 3.0 | 0.01 | 0.32 | 0.32 | 95 | 1010.8 |
| 20260904082354 | 72 | 294 | 0.0 | 3.0 | 0.01 | 0.32 | 0.32 | 95 | 1010.9 |
| 20260904081904 | 72 | 300 | 1.0 | 3.0 | 0.02 | 0.32 | 0.32 | 95 | 1010.7 |
| 20260904081604 | 72 | 131 | 0.0 | 2.0 | 0.02 | 0.32 | 0.32 | 95 | 1010.0 |
| 20260904081552 | 72 | 0 | 0.0 | 2.0 | 0.02 | 0.32 | 0.32 | 94 | 1010.4 |
| 20260904081330 | 73 | 131 | 0.0 | 2.0 | 0.02 | 0.32 | 0.32 | 95 | 1010.5 |
| 20260904080853 | 73 | 54 | 1.0 | 3.0 | 0.02 | 0.32 | 0.32 | 95 | 1010.4 |
| 20260904080344 | 73 | 13 | 0.0 | 5.0 | 0.02 | 0.32 | 0.32 | 95 | 1010.5 |
| 20260904080104 | 72 | 13 | 0.0 | 5.0 | 0.02 | 0.32 | 0.32 | 95 | 1009.8 |
| 20260904080049 | 73 | 0 | 2.0 | 5.0 | 0.02 | 0.32 | 0.32 | 94 | 1010.3 |
| 20260904075851 | 73 | 24 | 2.0 | 5.0 | 0.02 | 0.34 | 0.32 | 95 | 1010.5 |
| 20260904075340 | 73 | 355 | 0.0 | 6.0 | 0.02 | 0.34 | 0.32 | 95 | 1010.6 |
| 20260904074849 | 74 | 302 | 1.0 | 6.0 | 0.02 | 0.34 | 0.32 | 95 | 1010.7 |
| 20260904074614 | 73 | 296 | 2.0 | 6.0 | 0.02 | 0.34 | 0.32 | 95 | 1010.2 |
| 20260904074553 | 73 | 348 | 1.0 | 7.0 | 0.02 | 0.34 | 0.32 | 94 | 1010.8 |
| 20260904074357 | 74 | 286 | 1.0 | 7.0 | 0.02 | 0.34 | 0.32 | 95 | 1011.0 |
| 20260904073907 | 74 | 275 | 3.0 | 7.0 | 0.02 | 0.34 | 0.32 | 95 | 1011.3 |
| 20260904073357 | 74 | 313 | 1.0 | 4.0 | 0.01 | 0.33 | 0.31 | 95 | 1011.2 |
| 20260904073115 | 73 | 317 | 1.0 | 4.0 | 0.01 | 0.33 | 0.31 | 95 | 1010.5 |
| 20260904073108 | 73 | 321 | 1.0 | 4.0 | 0.01 | 0.33 | 0.31 | 94 | 1010.9 |
| 20260904072841 | 74 | 349 | 1.0 | 4.0 | 0.01 | 0.33 | 0.31 | 95 | 1011.0 |
| 20260904072351 | 74 | 297 | 1.0 | 2.0 | 0.01 | 0.33 | 0.31 | 95 | 1011.0 |
| 20260904071838 | 74 | 344 | 1.0 | 3.0 | 0.00 | 0.32 | 0.30 | 95 | 1010.9 |
| 20260904071606 | 73 | 315 | 0.0 | 4.0 | 0.00 | 0.32 | 0.30 | 95 | 1010.3 |
| 20260904071554 | 73 | 15 | 1.0 | 4.0 | 0.00 | 0.32 | 0.30 | 94 | 1010.8 |
| 20260904071350 | 74 | 11 | 1.0 | 4.0 | 0.01 | 0.32 | 0.30 | 95 | 1010.9 |
| 20260904070840 | 74 | 13 | 2.0 | 3.0 | 0.06 | 0.32 | 0.30 | 95 | 1010.9 |
| 20260904070352 | 74 | 355 | 0.0 | 1.0 | 0.10 | 0.32 | 0.30 | 95 | 1010.6 |
| 20260904070118 | 73 | 355 | 0.0 | 1.0 | 0.11 | 0.32 | 0.30 | 95 | 1010.0 |
| 20260904070049 | 73 | 0 | 0.0 | 1.0 | 0.11 | 0.32 | 0.30 | 94 | 1010.4 |
| 20260904065838 | 74 | 355 | 0.0 | 1.0 | 0.11 | 0.33 | 0.30 | 95 | 1010.8 |
| 20260904065349 | 74 | 355 | 0.0 | 0.0 | 0.11 | 0.33 | 0.30 | 95 | 1010.7 |
| 20260904064839 | 74 | 355 | 0.0 | 0.0 | 0.11 | 0.33 | 0.30 | 95 | 1010.8 |
| 20260904064607 | 73 | 355 | 0.0 | 0.0 | 0.11 | 0.33 | 0.30 | 95 | 1010.3 |
| 20260904064546 | 73 | 0 | 0.0 | 1.0 | 0.11 | 0.33 | 0.30 | 94 | 1010.7 |
| 20260904064349 | 74 | 355 | 0.0 | 1.0 | 0.11 | 0.33 | 0.30 | 95 | 1010.9 |
| 20260904063841 | 74 | 355 | 0.0 | 1.0 | 0.11 | 0.33 | 0.30 | 95 | 1011.1 |
| 20260904063353 | 74 | 341 | 1.0 | 1.0 | 0.11 | 0.33 | 0.30 | 95 | 1011.1 |
| 20260904063118 | 73 | 236 | 0.0 | 1.0 | 0.11 | 0.33 | 0.30 | 95 | 1010.6 |
| 20260904063104 | 73 | 0 | 0.0 | 2.0 | 0.11 | 0.33 | 0.30 | 94 | 1011.1 |
| 20260904062840 | 74 | 236 | 0.0 | 2.0 | 0.11 | 0.33 | 0.30 | 95 | 1011.3 |
| 20260904062351 | 74 | 236 | 0.0 | 2.0 | 0.11 | 0.33 | 0.30 | 95 | 1011.4 |
| 20260904061842 | 74 | 5 | 0.0 | 1.0 | 0.11 | 0.33 | 0.30 | 95 | 1011.4 |
| 20260904061610 | 73 | 5 | 0.0 | 2.0 | 0.11 | 0.33 | 0.30 | 95 | 1010.9 |
| 20260904061552 | 73 | 5 | 0.0 | 3.0 | 0.11 | 0.33 | 0.30 | 94 | 1011.3 |
| 20260904061352 | 74 | 5 | 0.0 | 3.0 | 0.10 | 0.32 | 0.29 | 95 | 1011.4 |
| 20260904060902 | 74 | 230 | 1.0 | 3.0 | 0.06 | 0.25 | 0.22 | 95 | 1011.5 |
| 20260904060354 | 74 | 274 | 0.0 | 2.0 | 0.11 | 0.22 | 0.19 | 95 | 1011.3 |
| 20260904060119 | 73 | 274 | 0.0 | 2.0 | 0.14 | 0.22 | 0.19 | 95 | 1010.8 |
| 20260904060059 | 73 | 274 | 0.0 | 3.0 | 0.14 | 0.22 | 0.19 | 94 | 1011.3 |
| 20260904055840 | 74 | 274 | 1.0 | 3.0 | 0.15 | 0.32 | 0.19 | 95 | 1011.5 |
| 20260904055351 | 74 | 5 | 1.0 | 3.0 | 0.18 | 0.32 | 0.19 | 95 | 1011.5 |
| 20260904054842 | 74 | 274 | 0.0 | 1.0 | 0.19 | 0.32 | 0.19 | 95 | 1011.6 |
| 20260904054616 | 73 | 124 | 0.0 | 1.0 | 0.19 | 0.32 | 0.19 | 94 | 1011.5 |
| 20260904054611 | 73 | 274 | 0.0 | 1.0 | 0.19 | 0.32 | 0.19 | 94 | 1011.0 |
| 20260904054412 | 74 | 124 | 0.0 | 0.0 | 0.19 | 0.32 | 0.19 | 94 | 1011.6 |
| 20260904053842 | 74 | 124 | 0.0 | 1.0 | 0.19 | 0.32 | 0.19 | 94 | 1011.7 |
| 20260904053355 | 74 | 124 | 0.0 | 2.0 | 0.19 | 0.32 | 0.19 | 94 | 1011.8 |
| 20260904053119 | 73 | 124 | 0.0 | 2.0 | 0.19 | 0.32 | 0.19 | 94 | 1011.2 |
| 20260904053055 | 73 | 0 | 0.0 | 2.0 | 0.19 | 0.32 | 0.19 | 94 | 1011.7 |
| 20260904052846 | 74 | 124 | 1.0 | 2.0 | 0.19 | 0.32 | 0.19 | 94 | 1011.9 |
| 20260904052354 | 74 | 53 | 1.0 | 2.0 | 0.19 | 0.32 | 0.19 | 94 | 1011.9 |
| 20260904051843 | 74 | 40 | 0.0 | 2.0 | 0.19 | 0.32 | 0.19 | 94 | 1011.9 |
| 20260904051609 | 73 | 40 | 1.0 | 7.0 | 0.19 | 0.32 | 0.19 | 94 | 1011.2 |
| 20260904051553 | 73 | 40 | 0.0 | 7.0 | 0.19 | 0.32 | 0.19 | 94 | 1011.7 |
| 20260904051351 | 74 | 182 | 1.0 | 7.0 | 0.19 | 0.32 | 0.19 | 94 | 1011.8 |